Regional Weather Roundup
Issued by NWS Kansas City/Pleasant Hill, MO

Home | Current Version | Previous Version | Text Only | Print | Product List | Glossary On
Versions: 1 2 3 4 5 6 7 8 9 10 11 12 13 14 15 16 17 18 19 20 21 22 23 24 25 26 27
000
ASUS43 KEAX 250910
RWREAX

WEATHER ROUNDUP FOR EASTERN KANSAS AND NORTHWEST MISSOURI
NATIONAL WEATHER SERVICE KANSAS CITY/PLEASANT HILL MO
300 AM CST SAT FEB 25 2017

KSZ040-057-103>105-MOZ028-029-037-043-251000-
...KANSAS CITY METROPOLITAN AREA...

CITY           SKY/WX    TMP DP  RH WIND       PRES   REMARKS
K.C. INTL      MOCLDY    26  18  71 NW10      30.07S WCI  16
K.C. DOWNTOWN  CLOUDY    28  18  66 NW9       30.08S WCI  19
LEES SUMMIT    CLOUDY    27  18  69 NW16      30.07S WCI  15
OLATHE - IXD   CLEAR     22  17  81 W8        30.09F WCI  12
OLATHE - OJC   PTCLDY    23  19  85 NW8G18    30.07F WCI  14
LAWRENCE       CLEAR     19  17  92 NW6       30.11S WCI  11

$$

MOZ001>008-011>017-020>025-030>033-038>040-044>046-053-054-251000-
...NORTHERN AND CENTRAL MISSOURI...

CITY           SKY/WX    TMP DP  RH WIND       PRES   REMARKS
ST. JOSEPH     CLOUDY    26  18  71 MISG      30.09S
MOSBY          CLOUDY    28  18  64 NW12G20   30.08S WCI  18
WARRENSBURG    CLOUDY    28  18  64 NW15G21   30.07S WCI  17
WHITEMAN AFB   MOCLDY    26  17  71 NW15G22   30.04S WCI  13
CLINTON        CLOUDY    27  18  69 W8        30.08F WCI  18
SEDALIA        PTCLDY    25  17  72 W12       30.05R WCI  14
WARSAW         NOT AVBL
CHILLICOTHE      N/A     24  15  68 NW9G20    30.05R WCI  14
KIRKSVILLE     PTCLDY    22  15  75 NW13G25   29.95R WCI  10

$$

MOZ041-047>049-056>058-063>065-088>090-097-251000-
...EASTERN AND SOUTHERN MISSOURI...

CITY           SKY/WX    TMP DP  RH WIND       PRES   REMARKS
ST. LOUIS INTL FLURRIES  31  19  61 W24G40    29.90R WCI  17
SPIRIT OF STL  CLOUDY    30  19  63 W17G30    29.93R WCI  18
COLUMBIA       MOCLDY    26  18  71 W16G24    29.99R WCI  14
JEFFERSON CITY CLOUDY    27  17  66 W20G30    30.02R WCI  13
ROLLA          CLOUDY    26  16  65 W21G31    29.96S WCI  12
OSAGE BEACH    PTCLDY    26  17  68 W13G21    30.05R WCI  15
SPRINGFIELD    PTCLDY    26  15  63 NW13G24   30.07R WCI  15
BRANSON        CLOUDY    27  16  63 NW14G22   30.07R WCI  15
JOPLIN         CLEAR     24  17  74 W8        30.15S WCI  15
WEST PLAINS    CLOUDY    30  18  60 NW15G24   29.99R WCI  19

$$

IAZ060-094-KSZ022-034>040-054-083-096-NEZ052-066-093-251000-
...KANSAS...SOUTHEAST NEBRASKA AND IOWA...

CITY           SKY/WX    TMP DP  RH WIND       PRES   REMARKS
TOPEKA         CLEAR     24  18  77 W7        30.12S WCI  16
MANHATTAN      CLEAR     23  15  71 CALM      30.15S
EMPORIA        CLEAR     21  17  84 W9        30.13S WCI  11
CHANUTE        CLEAR     23  16  74 W9        30.15S WCI  13
WICHITA        CLEAR     20  15  81 NW8       30.18F WCI  10
OMAHA          CLEAR     19  12  74 NW15      30.09R WCI   5
LINCOLN        CLEAR     22  14  71 N9        30.12R WCI  12
FALLS CITY     CLEAR     22  16  78 NW7       30.10R WCI  13
LAMONI         CLEAR     20  13  74 NW15G25   29.99S WCI   6
DES MOINES     MOCLDY    20  13  74 NW20      29.98R WCI   4

$$





USA.gov is the U.S. government's official web portal to all federal, state and local government web resources and services.